Johns Riffle, Oregon, United States
Lat: 42.72N, Lon: 123.86W
Wx Zone: ORZ024
Local Info
Past Weather Observations for Today

NOTE: This archive is for the closest National Weather Service station to Johns Riffle. Information may differ from the station used for current weather conditions.

Time Weather Temperature Dewpoint Humidity Pressure Winds Precip Visibility
14:43
Overcast
Light Rain
41°F / 5°C 41°F / 5°C 100% 29.98 in
(1015 mb)
S 13.8 mph
(S 22 kph)
0.01 in
(0.25 mm)
1/4SM
14:38
Overcast
Light Rain
41°F / 5°C 41°F / 5°C 100% 29.98 in
(1015 mb)
S 16.1 mph
(S 26 kph)
0.00 in
(0.00 mm)
1 1/4SM
13:56
Overcast
Light Rain
43°F / 6°C 41°F / 5°C 93% 29.98 in
(1015 mb)
S 16.1 mph
(S 26 kph)
0.01 in
(0.25 mm)
10SM
12:56
Overcast
41°F / 5°C 39°F / 4°C 93% 30.01 in
(1016 mb)
S 13.8 mph
(S 22 kph)
- 10SM
11:56
Overcast
41°F / 5°C 37°F / 3°C 87% 30.01 in
(1016 mb)
S 15 mph
(S 24 kph)
- 10SM
10:56
Overcast
41°F / 5°C 37°F / 3°C 87% 30.04 in
(1017 mb)
S 13.8 mph
(S 22 kph)
- 10SM
10:49
Overcast
41°F / 5°C 37°F / 3°C 87% 30.04 in
(1017 mb)
S 12.7 mph
(S 20 kph)
- 10SM
10:42
Overcast
39°F / 4°C 37°F / 3°C 93% 30.01 in
(1016 mb)
S 15 mph
(S 24 kph)
- 10SM
10:27
Overcast
41°F / 5°C 37°F / 3°C 87% 30.01 in
(1016 mb)
S 13.8 mph
(S 22 kph)
- 10SM
09:56
Overcast
37°F / 3°C 37°F / 3°C 100% 30.01 in
(1016 mb)
S 10.4 mph
(S 17 kph)
- 10SM
08:58
Overcast
Fog And Mist
36°F / 2°C 36°F / 2°C 100% 30.01 in
(1016 mb)
S 19.6 mph
(S 32 kph)
- 4SM
08:56
Overcast
Fog And Mist
36°F / 2°C 36°F / 2°C 100% 30.01 in
(1016 mb)
S 16.1 mph
(S 26 kph)
- 1 1/2SM
08:54
Obscured
Fog And Mist
36°F / 2°C 36°F / 2°C 100% 30.01 in
(1016 mb)
S 18.4 mph
(S 30 kph)
- 1SM
07:56
Obscured
Fog
34°F / 1°C 34°F / 1°C 100% 30.01 in
(1016 mb)
S 13.8 mph
(S 22 kph)
- M1/4SM
06:56
Obscured
Fog
34°F / 1°C 34°F / 1°C 100% 30.01 in
(1016 mb)
S 15 mph
(S 24 kph)
- M1/4SM
05:56
Obscured
Fog
34°F / 1°C 34°F / 1°C 100% 30.01 in
(1016 mb)
S 12.7 mph
(S 20 kph)
- M1/4SM
04:56
Obscured
Fog
34°F / 1°C 34°F / 1°C 100% 30.01 in
(1016 mb)
S 12.7 mph
(S 20 kph)
0.00 in
(0.00 mm)
1/4SM
03:56
Obscured
Fog
32°F / 0°C 32°F / 0°C 100% 30.01 in
(1016 mb)
S 12.7 mph
(S 20 kph)
- 1/4SM
02:56
Obscured
Fog
32°F / 0°C 32°F / 0°C 100% 30.01 in
(1016 mb)
S 15 mph
(S 24 kph)
- 1/4SM
01:56
Obscured
Fog
32°F / 0°C 32°F / 0°C 100% 30.01 in
(1016 mb)
S 10.4 mph
(S 17 kph)
- 1/4SM
00:56
Obscured
Fog
32°F / 0°C 32°F / 0°C 100% 30.01 in
(1016 mb)
S 12.7 mph
(S 20 kph)
0.00 in
(0.00 mm)
1/4SM
Time Weather Temperature Dewpoint Humidity Pressure Winds Precip Visibility


Weather for websites

WeatherForYou.com, LLC is not responsible for any damages or problems caused by this service. Current weather conditions are obtained from the closest station including government and personal stations which may have varying degrees of accuracy. Weather forecasts are derived from the NOAA NDFD. Like all things, this site belongs to Jesus Christ... He just trusts me to maintain it. If you have any questions or comments email webmaster@weatherforyou.com

Copyright © 2014, WeatherForYou.com LLC. All rights reserved.